Time,TemperatureF,DewpointF,PressureIn,WindDirection,WindDirectionDegrees,WindSpeedMPH,WindSpeedGustMPH,Humidity,HourlyPrecipIn,Conditions,Clouds,dailyrainin,SoftwareType,DateUTC
2013-03-24 00:12:00,42.4,39.0,29.79,NNW,341,4.0,-999.0,89,-99.99,,,0.00,weatherlink.com 1.10,2013-03-24 04:12:00,
2013-03-24 00:27:00,42.3,39.0,29.79,SSE,150,1.0,-999.0,87,-99.99,,,0.00,weatherlink.com 1.10,2013-03-24 04:27:00,
2013-03-24 00:42:00,42.4,39.0,29.80,SE,130,1.0,-999.0,86,-99.99,,,0.00,weatherlink.com 1.10,2013-03-24 04:42:00,
2013-03-24 00:57:00,42.4,39.0,29.80,SE,130,0.0,-999.0,87,-99.99,,,0.00,weatherlink.com 1.10,2013-03-24 04:57:00,
2013-03-24 01:12:00,42.0,39.0,29.82,SE,130,0.0,-999.0,88,-99.99,,,0.00,weatherlink.com 1.10,2013-03-24 05:12:00,
2013-03-24 01:27:00,41.8,39.0,29.81,North,355,4.0,-999.0,89,-99.99,,,0.00,weatherlink.com 1.10,2013-03-24 05:27:00,
2013-03-24 01:42:00,41.6,39.0,29.84,NNW,342,4.0,-999.0,90,-99.99,,,0.00,weatherlink.com 1.10,2013-03-24 05:42:00,
2013-03-24 01:57:00,41.7,39.0,29.82,North,5,7.0,-999.0,91,-99.99,,,0.00,weatherlink.com 1.10,2013-03-24 05:57:00,
2013-03-24 02:12:00,41.5,39.0,29.79,North,5,6.0,-999.0,91,-99.99,,,0.00,weatherlink.com 1.10,2013-03-24 06:12:00,
2013-03-24 02:27:00,41.1,39.0,29.77,North,355,7.0,-999.0,92,-99.99,,,0.02,weatherlink.com 1.10,2013-03-24 06:27:00,
2013-03-24 02:42:00,41.0,39.0,29.77,NW,313,5.0,-999.0,93,-99.99,,,0.04,weatherlink.com 1.10,2013-03-24 06:42:00,
2013-03-24 02:57:00,40.9,39.0,29.75,NNE,19,8.0,-999.0,93,-99.99,,,0.08,weatherlink.com 1.10,2013-03-24 06:57:00,
2013-03-24 03:12:00,41.0,39.0,29.75,NNE,17,5.0,-999.0,93,-99.99,,,0.10,weatherlink.com 1.10,2013-03-24 07:12:00,
2013-03-24 03:27:00,41.3,40.0,29.74,ESE,104,2.0,-999.0,94,-99.99,,,0.13,weatherlink.com 1.10,2013-03-24 07:27:00,
2013-03-24 03:42:00,41.7,40.0,29.73,NE,42,1.0,-999.0,94,-99.99,,,0.19,weatherlink.com 1.10,2013-03-24 07:42:00,
2013-03-24 03:57:00,42.2,41.0,29.72,NE,36,3.0,-999.0,94,-99.99,,,0.25,weatherlink.com 1.10,2013-03-24 07:57:00,
2013-03-24 04:12:00,42.3,41.0,29.71,North,5,0.0,-999.0,94,-99.99,,,0.30,weatherlink.com 1.10,2013-03-24 08:12:00,
2013-03-24 04:27:00,42.1,41.0,29.70,North,5,2.0,-999.0,94,-99.99,,,0.34,weatherlink.com 1.10,2013-03-24 08:27:00,
2013-03-24 04:42:00,41.5,40.0,29.70,East,89,1.0,-999.0,94,-99.99,,,0.39,weatherlink.com 1.10,2013-03-24 08:42:00,
2013-03-24 04:57:00,41.4,40.0,29.67,NE,49,3.0,-999.0,94,-99.99,,,0.43,weatherlink.com 1.10,2013-03-24 08:57:00,
2013-03-24 05:12:00,42.0,41.0,29.63,ENE,70,8.0,-999.0,95,-99.99,,,0.47,weatherlink.com 1.10,2013-03-24 09:12:00,
2013-03-24 05:27:00,41.4,40.0,29.62,ENE,64,10.0,-999.0,94,-99.99,,,0.48,weatherlink.com 1.10,2013-03-24 09:27:00,
2013-03-24 05:42:00,42.3,41.0,29.61,NW,314,4.0,-999.0,95,-99.99,,,0.48,weatherlink.com 1.10,2013-03-24 09:42:00,
2013-03-24 05:57:00,41.0,39.0,29.57,NNE,33,11.0,-999.0,94,-99.99,,,0.49,weatherlink.com 1.10,2013-03-24 09:57:00,
2013-03-24 06:12:00,40.4,39.0,29.55,NNE,19,10.0,-999.0,94,-99.99,,,0.50,weatherlink.com 1.10,2013-03-24 10:12:00,
2013-03-24 06:27:00,39.9,38.0,29.55,NNE,16,3.0,-999.0,94,-99.99,,,0.50,weatherlink.com 1.10,2013-03-24 10:27:00,
2013-03-24 06:42:00,39.6,38.0,29.58,North,360,5.0,-999.0,95,-99.99,,,0.52,weatherlink.com 1.10,2013-03-24 10:42:00,
2013-03-24 06:57:00,39.3,38.0,29.57,North,5,4.0,-999.0,95,-99.99,,,0.56,weatherlink.com 1.10,2013-03-24 10:57:00,
2013-03-24 07:12:00,39.1,38.0,29.57,NNE,19,7.0,-999.0,95,-99.99,,,0.68,weatherlink.com 1.10,2013-03-24 11:12:00,
2013-03-24 07:27:00,39.0,38.0,29.64,NNW,339,9.0,-999.0,95,-99.99,,,0.74,weatherlink.com 1.10,2013-03-24 11:27:00,
2013-03-24 07:42:00,39.0,38.0,29.67,North,351,10.0,-999.0,95,-99.99,,,0.84,weatherlink.com 1.10,2013-03-24 11:42:00,
2013-03-24 07:57:00,39.0,38.0,29.61,NNE,15,13.0,-999.0,95,-99.99,,,0.88,weatherlink.com 1.10,2013-03-24 11:57:00,
2013-03-24 08:12:00,39.1,38.0,29.57,NNE,30,8.0,-999.0,95,-99.99,,,0.89,weatherlink.com 1.10,2013-03-24 12:12:00,
2013-03-24 08:27:00,38.9,38.0,29.57,ENE,65,5.0,-999.0,95,-99.99,,,0.89,weatherlink.com 1.10,2013-03-24 12:27:00,
2013-03-24 08:42:00,38.8,38.0,29.57,North,5,8.0,-999.0,95,-99.99,,,0.89,weatherlink.com 1.10,2013-03-24 12:42:00,
2013-03-24 08:57:00,38.7,37.0,29.56,NNE,15,13.0,-999.0,95,-99.99,,,0.89,weatherlink.com 1.10,2013-03-24 12:57:00,
2013-03-24 09:12:00,38.7,37.0,29.56,NNW,335,8.0,-999.0,95,-99.99,,,0.89,weatherlink.com 1.10,2013-03-24 13:12:00,
2013-03-24 09:27:00,38.6,37.0,29.56,NE,41,6.0,-999.0,95,-99.99,,,0.89,weatherlink.com 1.10,2013-03-24 13:27:00,
2013-03-24 09:42:00,38.5,37.0,29.57,NNW,338,9.0,-999.0,95,-99.99,,,0.90,weatherlink.com 1.10,2013-03-24 13:42:00,
2013-03-24 09:57:00,38.3,37.0,29.56,NE,45,8.0,-999.0,95,-99.99,,,0.90,weatherlink.com 1.10,2013-03-24 13:57:00,
2013-03-24 10:12:00,38.3,37.0,29.56,ENE,72,18.0,-999.0,95,-99.99,,,0.91,weatherlink.com 1.10,2013-03-24 14:12:00,
2013-03-24 10:27:00,38.3,37.0,29.56,North,11,8.0,-999.0,95,-99.99,,,0.92,weatherlink.com 1.10,2013-03-24 14:27:00,
2013-03-24 10:42:00,38.3,37.0,29.55,NNE,26,9.0,-999.0,95,-99.99,,,0.92,weatherlink.com 1.10,2013-03-24 14:42:00,
2013-03-24 10:57:00,38.2,37.0,29.54,NNE,16,13.0,-999.0,94,-99.99,,,0.92,weatherlink.com 1.10,2013-03-24 14:57:00,
2013-03-24 11:12:00,38.0,37.0,29.55,NNW,330,12.0,-999.0,94,-99.99,,,0.92,weatherlink.com 1.10,2013-03-24 15:12:00,
2013-03-24 11:27:00,38.1,37.0,29.55,North,355,11.0,-999.0,94,-99.99,,,0.93,weatherlink.com 1.10,2013-03-24 15:27:00,
2013-03-24 11:42:00,38.7,37.0,29.56,NNE,24,6.0,-999.0,95,-99.99,,,0.94,weatherlink.com 1.10,2013-03-24 15:42:00,
2013-03-24 11:57:00,38.5,37.0,29.55,NE,34,12.0,-999.0,95,-99.99,,,0.95,weatherlink.com 1.10,2013-03-24 15:57:00,
2013-03-24 12:12:00,38.3,37.0,29.56,NNE,24,14.0,-999.0,95,-99.99,,,0.96,weatherlink.com 1.10,2013-03-24 16:12:00,
2013-03-24 12:27:00,38.5,37.0,29.58,North,355,11.0,-999.0,95,-99.99,,,0.96,weatherlink.com 1.10,2013-03-24 16:27:00,
2013-03-24 12:42:00,39.2,38.0,29.56,North,9,9.0,-999.0,95,-99.99,,,0.96,weatherlink.com 1.10,2013-03-24 16:42:00,
2013-03-24 12:57:00,39.3,38.0,29.55,North,351,10.0,-999.0,95,-99.99,,,0.96,weatherlink.com 1.10,2013-03-24 16:57:00,
2013-03-24 13:12:00,39.5,38.0,29.55,North,360,6.0,-999.0,95,-99.99,,,0.96,weatherlink.com 1.10,2013-03-24 17:12:00,
2013-03-24 13:27:00,39.7,38.0,29.54,North,350,14.0,-999.0,95,-99.99,,,0.96,weatherlink.com 1.10,2013-03-24 17:27:00,
2013-03-24 13:42:00,40.0,39.0,29.54,NNW,329,6.0,-999.0,95,-99.99,,,0.96,weatherlink.com 1.10,2013-03-24 17:42:00,
2013-03-24 13:57:00,40.9,40.0,29.52,North,5,6.0,-999.0,95,-99.99,,,0.96,weatherlink.com 1.10,2013-03-24 17:57:00,
2013-03-24 14:12:00,42.1,41.0,29.51,NNW,348,7.0,-999.0,95,-99.99,,,0.96,weatherlink.com 1.10,2013-03-24 18:12:00,
2013-03-24 14:27:00,41.8,40.0,29.51,North,360,2.0,-999.0,94,-99.99,,,0.96,weatherlink.com 1.10,2013-03-24 18:27:00,
2013-03-24 14:57:00,43.0,41.0,29.49,ENE,60,4.0,-999.0,94,-99.99,,,0.96,weatherlink.com 1.10,2013-03-24 18:57:00,
2013-03-24 15:12:00,42.7,41.0,29.48,NNW,340,8.0,-999.0,92,-99.99,,,0.96,weatherlink.com 1.10,2013-03-24 19:12:00,
2013-03-24 15:27:00,42.6,41.0,29.48,NE,40,3.0,-999.0,92,-99.99,,,0.96,weatherlink.com 1.10,2013-03-24 19:27:00,
2013-03-24 15:42:00,43.2,41.0,29.47,North,10,5.0,-999.0,92,-99.99,,,0.96,weatherlink.com 1.10,2013-03-24 19:42:00,
2013-03-24 15:57:00,42.6,41.0,29.45,NE,42,1.0,-999.0,92,-99.99,,,0.96,weatherlink.com 1.10,2013-03-24 19:57:00,
2013-03-24 16:12:00,42.7,40.0,29.46,NNE,13,0.0,-999.0,91,-99.99,,,0.96,weatherlink.com 1.10,2013-03-24 20:12:00,
2013-03-24 16:27:00,42.8,40.0,29.47,NNE,13,0.0,-999.0,91,-99.99,,,0.96,weatherlink.com 1.10,2013-03-24 20:27:00,
2013-03-24 16:42:00,42.5,40.0,29.48,South,181,2.0,-999.0,92,-99.99,,,0.96,weatherlink.com 1.10,2013-03-24 20:42:00,
2013-03-24 16:57:00,41.7,40.0,29.47,South,180,0.0,-999.0,93,-99.99,,,0.96,weatherlink.com 1.10,2013-03-24 20:57:00,
2013-03-24 17:12:00,41.0,39.0,29.47,SSE,149,4.0,-999.0,93,-99.99,,,0.96,weatherlink.com 1.10,2013-03-24 21:12:00,
2013-03-24 17:27:00,40.6,39.0,29.47,South,169,2.0,-999.0,93,-99.99,,,0.96,weatherlink.com 1.10,2013-03-24 21:27:00,
2013-03-24 17:42:00,40.3,39.0,29.47,SE,138,1.0,-999.0,94,-99.99,,,0.96,weatherlink.com 1.10,2013-03-24 21:42:00,
2013-03-24 17:57:00,39.8,38.0,29.46,SSE,162,5.0,-999.0,94,-99.99,,,0.96,weatherlink.com 1.10,2013-03-24 21:57:00,
2013-03-24 18:12:00,39.6,38.0,29.46,SSE,162,2.0,-999.0,94,-99.99,,,0.96,weatherlink.com 1.10,2013-03-24 22:12:00,
2013-03-24 18:27:00,39.2,38.0,29.48,South,181,3.0,-999.0,94,-99.99,,,0.96,weatherlink.com 1.10,2013-03-24 22:27:00,
2013-03-24 18:42:00,39.0,38.0,29.47,South,169,4.0,-999.0,94,-99.99,,,0.97,weatherlink.com 1.10,2013-03-24 22:42:00,
2013-03-24 18:57:00,38.6,37.0,29.47,SE,142,5.0,-999.0,94,-99.99,,,0.97,weatherlink.com 1.10,2013-03-24 22:57:00,
2013-03-24 19:12:00,38.4,37.0,29.46,SSE,166,2.0,-999.0,94,-99.99,,,0.97,weatherlink.com 1.10,2013-03-24 23:12:00,
2013-03-24 19:27:00,38.2,37.0,29.47,SSE,168,2.0,-999.0,94,-99.99,,,0.97,weatherlink.com 1.10,2013-03-24 23:27:00,
2013-03-24 19:42:00,38.0,37.0,29.47,South,174,0.0,-999.0,95,-99.99,,,0.98,weatherlink.com 1.10,2013-03-24 23:42:00,
2013-03-24 19:57:00,37.7,36.0,29.46,SE,140,0.0,-999.0,95,-99.99,,,0.98,weatherlink.com 1.10,2013-03-24 23:57:00,
2013-03-24 20:12:00,37.4,36.0,29.48,SSE,163,5.0,-999.0,95,-99.99,,,0.98,weatherlink.com 1.10,2013-03-25 00:12:00,
2013-03-24 20:27:00,37.4,36.0,29.47,SE,142,2.0,-999.0,95,-99.99,,,1.00,weatherlink.com 1.10,2013-03-25 00:27:00,
2013-03-24 20:42:00,37.2,36.0,29.48,SSE,150,4.0,-999.0,95,-99.99,,,1.01,weatherlink.com 1.10,2013-03-25 00:42:00,
2013-03-24 20:57:00,37.0,36.0,29.48,SSE,155,2.0,-999.0,95,-99.99,,,1.01,weatherlink.com 1.10,2013-03-25 00:57:00,
2013-03-24 21:12:00,37.0,36.0,29.49,SE,140,4.0,-999.0,95,-99.99,,,1.01,weatherlink.com 1.10,2013-03-25 01:12:00,
2013-03-24 21:27:00,36.9,36.0,29.49,SSE,164,1.0,-999.0,95,-99.99,,,1.01,weatherlink.com 1.10,2013-03-25 01:27:00,
2013-03-24 21:42:00,36.8,36.0,29.49,SSE,162,0.0,-999.0,95,-99.99,,,1.02,weatherlink.com 1.10,2013-03-25 01:42:00,
2013-03-24 21:57:00,37.0,36.0,29.49,SSE,161,1.0,-999.0,95,-99.99,,,1.02,weatherlink.com 1.10,2013-03-25 01:57:00,
2013-03-24 22:12:00,36.9,36.0,29.50,SSE,161,4.0,-999.0,95,-99.99,,,1.02,weatherlink.com 1.10,2013-03-25 02:12:00,
2013-03-24 22:27:00,36.8,36.0,29.50,SSE,155,4.0,-999.0,95,-99.99,,,1.02,weatherlink.com 1.10,2013-03-25 02:27:00,
2013-03-24 22:42:00,36.8,36.0,29.49,SE,135,6.0,-999.0,95,-99.99,,,1.02,weatherlink.com 1.10,2013-03-25 02:42:00,
2013-03-24 22:57:00,36.7,35.0,29.48,South,170,2.0,-999.0,95,-99.99,,,1.02,weatherlink.com 1.10,2013-03-25 02:57:00,
2013-03-24 23:12:00,36.8,36.0,29.48,SE,143,2.0,-999.0,95,-99.99,,,1.02,weatherlink.com 1.10,2013-03-25 03:12:00,
2013-03-24 23:27:00,36.8,36.0,29.48,SE,142,2.0,-999.0,95,-99.99,,,1.02,weatherlink.com 1.10,2013-03-25 03:27:00,
2013-03-24 23:42:00,36.8,36.0,29.48,SSE,154,2.0,-999.0,95,-99.99,,,1.03,weatherlink.com 1.10,2013-03-25 03:42:00,
2013-03-24 23:57:00,36.6,35.0,29.48,ESE,113,5.0,-999.0,95,-99.99,,,1.07,weatherlink.com 1.10,2013-03-25 03:57:00,